Weather History for Annette Island, AK

Change the Weather History Date:

Monday, January 21, 2013

  Actual Average Record
Temperature  
Mean Temperature 39 °F 37 °F  
Max Temperature 44 °F 42 °F 55 °F (1995)
Min Temperature 33 °F 32 °F 7 °F (1969)
Degree Days  
Heating Degree Days 26 28  
Month to date heating degree days 537 588  
Since 1 July heating degree days 3580 3499  
Cooling Degree Days 0    
Month to date cooling degree days 0  
Year to date cooling degree days 0  
Moisture  
Dew Point 36 °F    
Average Humidity 0    
Maximum Humidity 0    
Minimum Humidity 0    
Precipitation  
Precipitation 0.01 in 0.36 in 1.86 in (1955)
Month to date precipitation 4.89 7.42  
Year to date precipitation 4.89 7.42  
Snow  
Snow 0.00 in 0.20 in 4.90 in (1971)
Month to date snowfall T 5.3  
Since 1 July snowfall 11.4 17.0  
Snow Depth 0.00 in    
Sea Level Pressure  
Sea Level Pressure 30.08 in    
Wind  
Wind Speed 3 mph (SE)    
Max Wind Speed 14 mph    
Max Gust Speed 18 mph    
Visibility 9 miles    
Events      
T = Trace of Precipitation, MM = Missing Value Source: NWS Daily Summary

Daily Weather History Graph

Daily Weather History Graph

Search for Another Location

Airport:

Trip Planner

Search our weather history database for the weather conditions in past years. The results will help you decide how hot, cold, wet, or windy it might be!

Date:

Astronomy

Jan. 21, 2013 Rise Set
Actual Time 7:54 AM AKST 4:01 PM AKST
Civil Twilight 7:12 AM AKST 4:43 PM AKST
Nautical Twilight 6:27 AM AKST 5:28 PM AKST
Astronomical Twilight 5:44 AM AKST 6:12 PM AKST
Moon 11:41 AM AKST (1/21) 3:32 AM AKST (1/21)
Length of Visible Light 9h 31m
Length of Day
8h 07m
Waxing Gibbous, 76% of the Moon is Illuminated
Jan 21
Waxing Gibbous
Jan 26
Full
Feb 3
Last Quarter
Feb 9
New
Feb 17
First Quarter

Hourly Weather History & Observations

Time (AKST) Temp. Windchill Dew Point Humidity Pressure Visibility Wind Dir Wind Speed Gust Speed Precip Events Conditions
12:14 AM 42.8 °F 37.0 °F 39.2 °F 87% 30.23 in 5.0 mi ESE 10.4 mph - N/A   Overcast
12:53 AM 42.1 °F 36.6 °F 39.9 °F 92% 30.23 in 8.0 mi SE 9.2 mph - N/A   Overcast
1:32 AM 42.8 °F 37.5 °F 39.2 °F 87% 30.21 in 3.0 mi ESE 9.2 mph - 0.01 in   Overcast
1:53 AM 42.1 °F 35.7 °F 39.0 °F 89% 30.20 in 6.0 mi SE 11.5 mph - 0.01 in   Overcast
2:27 AM 41.0 °F 35.2 °F 39.2 °F 93% 30.19 in 9.0 mi ESE 9.2 mph - N/A   Overcast
2:34 AM 41.0 °F 35.8 °F 39.2 °F 93% 30.19 in 10.0 mi ESE 8.1 mph 17.3 mph N/A   Overcast
2:53 AM 42.1 °F 36.6 °F 39.0 °F 89% 30.18 in 10.0 mi ESE 9.2 mph - N/A   Overcast
3:23 AM 42.8 °F 37.5 °F 37.4 °F 81% 30.17 in 10.0 mi SE 9.2 mph - N/A   Overcast
3:53 AM 42.1 °F 37.7 °F 37.9 °F 85% 30.18 in 10.0 mi SE 6.9 mph - N/A   Overcast
4:53 AM 42.1 °F 40.2 °F 37.9 °F 85% 30.17 in 10.0 mi ESE 3.5 mph - N/A   Overcast
5:53 AM 43.0 °F - 37.0 °F 80% 30.16 in 10.0 mi Calm Calm - N/A   Overcast
6:53 AM 41.0 °F 39.0 °F 37.9 °F 89% 30.14 in 10.0 mi East 3.5 mph - N/A   Overcast
7:53 AM 41.0 °F - 37.9 °F 89% 30.13 in 10.0 mi Calm Calm - N/A   Overcast
8:29 AM 42.8 °F - 37.4 °F 81% 30.12 in 10.0 mi Calm Calm - N/A   Overcast
8:53 AM 42.1 °F 39.2 °F 37.0 °F 82% 30.12 in 10.0 mi ESE 4.6 mph - N/A   Overcast
9:53 AM 43.0 °F 39.5 °F 35.1 °F 74% 30.12 in 10.0 mi ESE 5.8 mph - N/A   Overcast
10:53 AM 44.1 °F 40.8 °F 36.0 °F 73% 30.09 in 10.0 mi SE 5.8 mph - N/A   Overcast
11:53 AM 43.0 °F 40.3 °F 35.1 °F 74% 30.07 in 10.0 mi SE 4.6 mph - N/A   Overcast
12:53 PM 43.0 °F 41.3 °F 36.0 °F 76% 30.06 in 10.0 mi SE 3.5 mph - N/A   Overcast
1:53 PM 41.0 °F 38.0 °F 37.0 °F 86% 30.04 in 10.0 mi SSE 4.6 mph - N/A   Mostly Cloudy
2:53 PM 41.0 °F - 37.9 °F 89% 30.02 in 10.0 mi Calm Calm - N/A   Overcast
3:53 PM 39.0 °F - 37.0 °F 93% 30.00 in 10.0 mi Calm Calm - N/A   Overcast
4:53 PM 42.1 °F 40.2 °F 32.0 °F 67% 29.98 in 10.0 mi SE 3.5 mph - N/A   Clear
5:53 PM 39.9 °F 36.7 °F 34.0 °F 79% 29.96 in 10.0 mi SSE 4.6 mph - N/A   Clear
6:53 PM 36.0 °F - 34.0 °F 93% 29.94 in 10.0 mi Calm Calm - N/A   Clear
7:53 PM 34.0 °F - 33.1 °F 96% 29.92 in 10.0 mi Calm Calm - N/A   Clear
8:53 PM 35.1 °F - 33.1 °F 92% 29.91 in 10.0 mi Calm Calm - N/A   Clear
9:53 PM 34.0 °F - 32.0 °F 92% 29.88 in 10.0 mi Calm Calm - N/A   Clear
10:53 PM 34.0 °F - 32.0 °F 92% 29.88 in 10.0 mi Calm Calm - N/A   Clear
11:53 PM 35.1 °F - 33.1 °F 92% 29.87 in 10.0 mi Calm Calm - N/A   Clear